Time,TemperatureF,DewpointF,PressureIn,WindDirection,WindDirectionDegrees,WindSpeedMPH,WindSpeedGustMPH,Humidity,HourlyPrecipIn,Conditions,Clouds,dailyrainin,SoftwareType,DateUTC
2013-06-17 00:12:00,78.0,73.0,-100.00,SW,220,4.0,5.0,86,0.00,,,0.00,,2013-06-17 05:12:00,
2013-06-17 00:22:00,78.0,73.0,-100.00,SW,220,4.0,5.0,86,0.00,,,0.00,,2013-06-17 05:22:00,
2013-06-17 00:33:00,78.0,73.0,-100.00,SW,220,4.0,5.0,86,0.00,,,0.00,,2013-06-17 05:33:00,
2013-06-17 00:44:00,78.0,73.0,-100.00,SW,220,4.0,5.0,86,0.00,,,0.00,,2013-06-17 05:44:00,
2013-06-17 01:12:00,77.0,73.0,-100.00,SW,215,4.0,5.0,87,0.00,,,0.00,,2013-06-17 06:12:00,
2013-06-17 01:22:00,77.0,73.0,-100.00,SW,215,4.0,5.0,87,0.00,,,0.00,,2013-06-17 06:22:00,
2013-06-17 01:33:00,77.0,73.0,-100.00,SW,215,4.0,5.0,87,0.00,,,0.00,,2013-06-17 06:33:00,
2013-06-17 01:43:00,77.0,73.0,-100.00,SW,215,4.0,5.0,87,0.00,,,0.00,,2013-06-17 06:43:00,
2013-06-17 02:12:00,77.0,74.0,-100.00,SW,217,3.0,5.0,89,0.00,,,0.00,,2013-06-17 07:12:00,
2013-06-17 02:22:00,77.0,74.0,-100.00,SW,217,3.0,5.0,89,0.00,,,0.00,,2013-06-17 07:22:00,
2013-06-17 02:33:00,77.0,74.0,-100.00,SW,217,3.0,5.0,89,0.00,,,0.00,,2013-06-17 07:33:00,
2013-06-17 02:43:00,77.0,74.0,-100.00,SW,217,3.0,5.0,89,0.00,,,0.00,,2013-06-17 07:43:00,
2013-06-17 03:11:00,76.0,73.0,-100.00,SSW,206,0.0,0.0,91,0.00,,,0.00,,2013-06-17 08:11:00,
2013-06-17 03:22:00,76.0,73.0,-100.00,SSW,206,0.0,0.0,91,0.00,,,0.00,,2013-06-17 08:22:00,
2013-06-17 03:34:00,76.0,73.0,-100.00,SSW,206,0.0,0.0,91,0.00,,,0.00,,2013-06-17 08:34:00,
2013-06-17 03:43:00,76.0,73.0,-100.00,SSW,206,0.0,0.0,91,0.00,,,0.00,,2013-06-17 08:43:00,
2013-06-17 04:12:00,75.0,73.0,-100.00,SSW,206,3.0,4.0,92,0.00,,,0.00,,2013-06-17 09:12:00,
2013-06-17 04:22:00,75.0,73.0,-100.00,SSW,206,3.0,4.0,92,0.00,,,0.00,,2013-06-17 09:22:00,
2013-06-17 04:34:00,75.0,73.0,-100.00,SSW,206,3.0,4.0,92,0.00,,,0.00,,2013-06-17 09:34:00,
2013-06-17 04:43:00,75.0,73.0,-100.00,SSW,206,3.0,4.0,92,0.00,,,0.00,,2013-06-17 09:43:00,
2013-06-17 05:12:00,74.0,72.0,-100.00,SSW,205,0.0,4.0,94,0.00,,,0.00,,2013-06-17 10:12:00,
2013-06-17 05:22:00,74.0,72.0,-100.00,SSW,205,0.0,4.0,94,0.00,,,0.00,,2013-06-17 10:22:00,
2013-06-17 05:33:00,74.0,72.0,-100.00,SSW,205,0.0,4.0,94,0.00,,,0.00,,2013-06-17 10:33:00,
2013-06-17 05:43:00,74.0,72.0,-100.00,SSW,205,0.0,4.0,94,0.00,,,0.00,,2013-06-17 10:43:00,
2013-06-17 06:12:00,73.0,71.0,-100.00,SW,221,0.0,2.0,95,0.00,,,0.00,,2013-06-17 11:12:00,
2013-06-17 06:23:00,73.0,71.0,-100.00,SW,221,0.0,2.0,95,0.00,,,0.00,,2013-06-17 11:23:00,
2013-06-17 06:33:00,73.0,71.0,-100.00,SW,221,0.0,2.0,95,0.00,,,0.00,,2013-06-17 11:33:00,
2013-06-17 06:43:00,73.0,71.0,-100.00,SW,221,0.0,2.0,95,0.00,,,0.00,,2013-06-17 11:43:00,
2013-06-17 07:12:00,74.0,73.0,-100.00,SSW,194,0.0,3.0,96,0.00,,,0.00,,2013-06-17 12:12:00,
2013-06-17 07:23:00,74.0,73.0,-100.00,SSW,194,0.0,3.0,96,0.00,,,0.00,,2013-06-17 12:23:00,
2013-06-17 07:33:00,74.0,73.0,-100.00,SSW,194,0.0,3.0,96,0.00,,,0.00,,2013-06-17 12:33:00,
2013-06-17 07:43:00,74.0,73.0,-100.00,SSW,194,0.0,3.0,96,0.00,,,0.00,,2013-06-17 12:43:00,
2013-06-17 08:12:00,79.0,74.0,-100.00,SSW,210,5.0,7.0,86,0.00,,,0.00,,2013-06-17 13:12:00,
2013-06-17 08:22:00,79.0,74.0,-100.00,SSW,210,5.0,7.0,86,0.00,,,0.00,,2013-06-17 13:22:00,
2013-06-17 08:32:00,79.0,74.0,-100.00,SSW,210,5.0,7.0,86,0.00,,,0.00,,2013-06-17 13:32:00,
2013-06-17 08:43:00,79.0,74.0,-100.00,SSW,210,5.0,7.0,86,0.00,,,0.00,,2013-06-17 13:43:00,
2013-06-17 09:12:00,83.0,75.0,-100.00,SW,219,7.0,10.0,78,0.00,,,0.00,,2013-06-17 14:12:00,
2013-06-17 09:22:00,83.0,75.0,-100.00,SW,219,7.0,10.0,78,0.00,,,0.00,,2013-06-17 14:22:00,
2013-06-17 09:34:00,83.0,75.0,-100.00,SW,219,7.0,10.0,78,0.00,,,0.00,,2013-06-17 14:34:00,
2013-06-17 09:43:00,83.0,75.0,-100.00,SW,219,7.0,10.0,78,0.00,,,0.00,,2013-06-17 14:43:00,
2013-06-17 10:12:00,84.0,75.0,-100.00,WSW,248,8.0,13.0,74,0.00,,,0.00,,2013-06-17 15:12:00,
2013-06-17 10:22:00,84.0,75.0,-100.00,WSW,248,8.0,13.0,74,0.00,,,0.00,,2013-06-17 15:22:00,
2013-06-17 10:33:00,84.0,75.0,-100.00,WSW,248,8.0,13.0,74,0.00,,,0.00,,2013-06-17 15:33:00,
2013-06-17 10:43:00,84.0,75.0,-100.00,WSW,248,8.0,13.0,74,0.00,,,0.00,,2013-06-17 15:43:00,
2013-06-17 11:12:00,86.0,73.0,-100.00,SW,235,7.0,12.0,65,0.00,,,0.00,,2013-06-17 16:12:00,
2013-06-17 11:22:00,86.0,73.0,-100.00,SW,235,7.0,12.0,65,0.00,,,0.00,,2013-06-17 16:22:00,
2013-06-17 11:33:00,86.0,73.0,-100.00,SW,235,7.0,12.0,65,0.00,,,0.00,,2013-06-17 16:33:00,
2013-06-17 11:43:00,86.0,73.0,-100.00,SW,235,7.0,12.0,65,0.00,,,0.00,,2013-06-17 16:43:00,
2013-06-17 12:12:00,87.0,72.0,-100.00,West,273,5.0,9.0,62,0.00,,,0.00,,2013-06-17 17:12:00,
2013-06-17 12:22:00,87.0,72.0,-100.00,West,273,5.0,9.0,62,0.00,,,0.00,,2013-06-17 17:22:00,
2013-06-17 12:33:00,87.0,72.0,-100.00,West,273,5.0,9.0,62,0.00,,,0.00,,2013-06-17 17:33:00,
2013-06-17 12:43:00,87.0,72.0,-100.00,West,273,5.0,9.0,62,0.00,,,0.00,,2013-06-17 17:43:00,
2013-06-17 13:12:00,90.0,71.0,-100.00,NW,304,6.0,10.0,54,0.00,,,0.00,,2013-06-17 18:12:00,
2013-06-17 13:23:00,90.0,71.0,-100.00,NW,304,6.0,10.0,54,0.00,,,0.00,,2013-06-17 18:23:00,
2013-06-17 13:33:00,90.0,71.0,-100.00,NW,304,6.0,10.0,54,0.00,,,0.00,,2013-06-17 18:33:00,
2013-06-17 13:43:00,90.0,71.0,-100.00,NW,304,6.0,10.0,54,0.00,,,0.00,,2013-06-17 18:43:00,
2013-06-17 14:11:00,92.0,69.0,-100.00,West,269,7.0,12.0,47,0.00,,,0.00,,2013-06-17 19:11:00,
2013-06-17 14:22:00,92.0,69.0,-100.00,West,269,7.0,12.0,47,0.00,,,0.00,,2013-06-17 19:22:00,
2013-06-17 14:33:00,92.0,69.0,-100.00,West,269,7.0,12.0,47,0.00,,,0.00,,2013-06-17 19:33:00,
2013-06-17 14:43:00,92.0,69.0,-100.00,West,269,7.0,12.0,47,0.00,,,0.00,,2013-06-17 19:43:00,
2013-06-17 15:11:00,93.0,69.0,-100.00,WSW,256,8.0,12.0,46,0.00,,,0.00,,2013-06-17 20:11:00,
2013-06-17 15:22:00,93.0,69.0,-100.00,WSW,256,8.0,12.0,46,0.00,,,0.00,,2013-06-17 20:22:00,
2013-06-17 15:34:00,93.0,69.0,-100.00,WSW,256,8.0,12.0,46,0.00,,,0.00,,2013-06-17 20:34:00,
2013-06-17 15:43:00,93.0,69.0,-100.00,WSW,256,8.0,12.0,46,0.00,,,0.00,,2013-06-17 20:43:00,
2013-06-17 18:11:00,90.0,72.0,-100.00,SSW,206,7.0,10.0,55,0.00,,,0.00,,2013-06-17 23:11:00,
2013-06-17 18:22:00,90.0,72.0,-100.00,SSW,206,7.0,10.0,55,0.00,,,0.00,,2013-06-17 23:22:00,
2013-06-17 18:32:00,90.0,72.0,-100.00,SSW,206,7.0,10.0,55,0.00,,,0.00,,2013-06-17 23:32:00,
2013-06-17 18:42:00,90.0,72.0,-100.00,SSW,206,7.0,10.0,55,0.00,,,0.00,,2013-06-17 23:42:00,
2013-06-17 19:12:00,90.0,73.0,-100.00,SSW,200,5.0,6.0,58,0.00,,,0.00,,2013-06-18 00:12:00,
2013-06-17 19:22:00,90.0,73.0,-100.00,SSW,200,5.0,6.0,58,0.00,,,0.00,,2013-06-18 00:22:00,
2013-06-17 19:33:00,90.0,73.0,-100.00,SSW,200,5.0,6.0,58,0.00,,,0.00,,2013-06-18 00:33:00,
2013-06-17 19:43:00,90.0,73.0,-100.00,SSW,200,5.0,6.0,58,0.00,,,0.00,,2013-06-18 00:43:00,
2013-06-17 20:11:00,86.0,72.0,-100.00,SSW,202,3.0,5.0,63,0.00,,,-99.99,,2013-06-18 01:11:00,
2013-06-17 20:23:00,86.0,72.0,-100.00,SSW,202,3.0,5.0,63,0.00,,,-99.99,,2013-06-18 01:23:00,
2013-06-17 20:34:00,86.0,72.0,-100.00,SSW,202,3.0,5.0,63,0.00,,,-99.99,,2013-06-18 01:34:00,
2013-06-17 20:44:00,86.0,72.0,-100.00,SSW,202,3.0,5.0,63,0.00,,,-99.99,,2013-06-18 01:44:00,
2013-06-17 21:11:00,83.0,74.0,-100.00,SSW,192,4.0,6.0,75,0.00,,,0.00,,2013-06-18 02:11:00,
2013-06-17 21:22:00,83.0,74.0,-100.00,SSW,192,4.0,6.0,75,0.00,,,0.00,,2013-06-18 02:22:00,
2013-06-17 21:34:00,83.0,74.0,-100.00,SSW,192,4.0,6.0,75,0.00,,,0.00,,2013-06-18 02:34:00,
2013-06-17 21:43:00,83.0,74.0,-100.00,SSW,192,4.0,6.0,75,0.00,,,0.00,,2013-06-18 02:43:00,
2013-06-17 22:12:00,82.0,74.0,-100.00,SSW,197,6.0,10.0,77,0.00,,,0.00,,2013-06-18 03:12:00,
2013-06-17 22:23:00,82.0,74.0,-100.00,SSW,197,6.0,10.0,77,0.00,,,0.00,,2013-06-18 03:23:00,
2013-06-17 22:34:00,82.0,74.0,-100.00,SSW,197,6.0,10.0,77,0.00,,,0.00,,2013-06-18 03:34:00,
2013-06-17 22:43:00,82.0,74.0,-100.00,SSW,197,6.0,10.0,77,0.00,,,0.00,,2013-06-18 03:43:00,
2013-06-17 23:12:00,80.0,74.0,-100.00,SSW,198,4.0,6.0,82,0.00,,,0.00,,2013-06-18 04:12:00,
2013-06-17 23:23:00,80.0,74.0,-100.00,SSW,198,4.0,6.0,82,0.00,,,0.00,,2013-06-18 04:23:00,
2013-06-17 23:34:00,80.0,74.0,-100.00,SSW,198,4.0,6.0,82,0.00,,,0.00,,2013-06-18 04:34:00,
2013-06-17 23:43:00,80.0,74.0,-100.00,SSW,198,4.0,6.0,82,0.00,,,0.00,,2013-06-18 04:43:00,